Location: Plzen
(49.7500°N, 13.3670°E)
Time: 14:03:13
(UTC+02:00)

ISS - Visible Passes

Search period start: 22 October 2017 00:00
Search period end: 31 October 2017 23:00
Orbit: 401 x 408 km, 51.6° (Epoch: 23 October)

Date Brightness Start Highest point End Pass type
(mag) Time Alt. Az. Time Alt. Az. Time Alt. Az.
28 Oct -0.3 07:06:19 10° SSE 07:07:03 11° SE 07:07:47 10° ESE visible
30 Oct -1.2 05:55:53 10° SSW 05:58:22 20° SE 06:00:52 10° E visible
31 Oct -0.8 05:04:40 10° SSE 05:06:11 13° SE 05:07:41 10° ESE visible
